This demonstration page uses our WeatherBlox Daily Observations layout. Learn more.

Left ArrowRight Arrow

38.80484, -77.04692

Hourly Observations for December 13, 2021

Temp ( °F °C ) Dew Point ( °F °C ) Humidity (%) Winds ( mph kmh ) Pressure ( in mb ) Visibility ( mi km ) Precip ( " mm )
12:52 am 00:52 Mostly Clear 36 2.2 27 -2.8 70 70 SW 3 6 30.34 1028 10 16 0.00 0.00
1:52 am 01:52 Mostly Clear 35 1.7 25 -3.9 67 67 SSW 6 9 30.36 1028 10 16 0.00 0.00
2:52 am 02:52 Mostly Clear 36 2.2 26 -3.3 67 67 SW 5 7 30.37 1028 10 16 0.00 0.00
3:52 am 03:52 Mostly Clear 34 1.1 27 -2.8 76 76 SSW 5 7 30.37 1028 10 16 0.00 0.00
4:52 am 04:52 Mostly Clear 33 0.6 25 -3.9 72 72 SW 5 7 30.36 1028 10 16 0.00 0.00
5:52 am 05:52 Partly Cloudy 33 0.6 25 -3.9 72 72 SW 3 6 30.37 1029 10 16 0.00 0.00
6:52 am 06:52 Mostly Clear 34 1.1 26 -3.3 73 73 Calm 30.38 1029 10 16 0.00 0.00
7:52 am 07:52 Mostly Sunny 34 1.1 27 -2.8 76 76 WSW 6 9 30.38 1029 10 16 0.00 0.00
8:52 am 08:52 Mostly Sunny 37 2.8 29 -1.7 73 73 S 7 11 30.38 1029 10 16 0.00 0.00
9:52 am 09:52 Mostly Sunny 40 4.4 29 -1.7 65 65 SSE 6 9 30.39 1029 10 16 0.00 0.00
10:52 am 10:52 Mostly Sunny 43 6.1 28 -2.2 56 56 SSE 7 11 30.38 1029 10 16 0.00 0.00
11:52 am 11:52 Mostly Sunny 46 7.8 28 -2.2 50 50 SE 3 6 30.36 1028 10 16 0.00 0.00
12:52 pm 12:52 Mostly Sunny 50 10 29 -1.7 44 44 SSE 3 6 30.32 1027 10 16 0.00 0.00
1:52 pm 13:52 Mostly Sunny 51 10.6 29 -1.7 43 43 S 9 15 30.30 1026 10 16 0.00 0.00
2:52 pm 14:52 Mostly Sunny 51 10.6 29 -1.7 43 43 S 10 17 30.30 1026 10 16 0.00 0.00
3:52 pm 15:52 Sunny 51 10.6 28 -2.2 41 41 S 8 13 30.31 1026 10 16 0.00 0.00
4:52 pm 16:52 Mostly Cloudy 50 10 24 -4.4 36 36 S 6 9 30.32 1027 10 16 0.00 0.00
5:52 pm 17:52 Mostly Cloudy 49 9.4 22 -5.6 35 35 SW 3 6 30.33 1027 10 16 0.00 0.00
6:52 pm 18:52 Partly Cloudy 46 7.8 33 0.6 61 61 S 5 7 30.33 1027 10 16 0.00 0.00
7:52 pm 19:52 Partly Cloudy 42 5.6 34 1.1 73 73 S 7 11 30.33 1027 10 16 0.00 0.00
8:52 pm 20:52 Mostly Cloudy 42 5.6 32 0 68 68 SW 3 6 30.34 1027 10 16 0.00 0.00
9:52 pm 21:52 Mostly Cloudy 42 5.6 32 0 68 68 S 5 7 30.34 1027 10 16 0.00 0.00
10:52 pm 22:52 Mostly Cloudy 42 5.6 29 -1.7 60 60 SW 3 6 30.34 1028 10 16 0.00 0.00
11:52 pm 23:52 Mostly Cloudy 40 4.4 29 -1.7 65 65 N 3 6 30.35 1028 10 16 0.00 0.00

Powered by AerisWeather